"startDT [UTC]","vpos","CH4 [ppm]","stdev(CH4) [ppm]","CO2 [ppm]","stdev(CO2) [ppm]","H2O_reported [%]","stdev(H2O_reported)","CavityPressure [torr]","CavityTemp [C]","OutletValve","CH4_dry [ppm]","CO2_dry [ppm]","DasTemp [C]","EtalonTemp [C]","WarmBoxTemp [C]","MPVPosition","T_ECpre [C]","T_EC1 [C]","T_EC2 [C]","p_inlet [hPa]","p_in [hPa]","p_out [hPa]","T_inlet [C]","RH_inlet [%]","dwpt_inlet [C]","T_vent [C]","RH_vent [%]","dwpt_vent [C]","flow_vent [l min-1]","flow_inlet [l min-1]","dwpt_sample [C]","T_room [C]"
2015-09-10 00:00:00,3.0,1.89095,0.04170,396.813,2.546,0.1695,0.2609,139.969,45.000,31305.96313,1.89847,397.619,34.750,45.068,45.000,0.00,0.10,-272.73,-272.80,-13,458,-947,24.7,19.7,0.0,24.3,20.5,0.3,5.73,1.81,2.4,28.6
2015-09-10 00:01:00,3.0,1.87586,0.00037,397.006,0.043,0.0293,0.0021,140.001,45.000,31267.56687,1.87639,397.144,34.750,45.068,45.000,0.00,0.10,-272.75,-272.81,-13,457,-947,24.7,19.9,0.1,24.3,20.7,0.4,5.73,1.89,2.4,28.5
2015-09-10 00:02:00,3.0,1.87545,0.00029,397.228,0.072,0.0268,0.0025,140.002,45.000,31261.31153,1.87596,397.354,34.746,45.068,45.000,0.00,0.10,-272.74,-272.80,-12,457,-947,24.7,19.7,0.0,24.3,20.6,0.3,5.73,2.06,2.4,28.5
2015-09-10 00:03:00,3.0,1.87551,0.00034,397.412,0.052,0.0225,0.0021,139.998,45.000,31255.44443,1.87594,397.517,34.709,45.068,45.000,0.00,0.10,-272.73,-272.80,-12,458,-947,24.7,19.9,0.1,24.3,20.7,0.4,5.73,1.99,2.4,28.6
2015-09-10 00:04:00,3.0,1.87561,0.00036,397.483,0.036,0.0179,0.0026,140.003,45.000,31250.92577,1.87593,397.568,34.697,45.068,45.000,0.00,0.10,-272.74,-272.80,-12,458,-947,24.7,19.6,-0.1,24.3,20.6,0.3,5.73,1.80,2.4,28.5
2015-09-10 00:05:00,3.0,1.87545,0.00027,397.491,0.029,0.0146,0.0015,140.002,45.000,31248.75229,1.87572,397.560,34.682,45.068,45.000,0.00,0.10,-272.74,-272.81,-13,458,-947,24.7,19.3,-0.3,24.3,20.2,0.0,5.73,1.79,2.4,28.5
2015-09-10 00:06:00,3.0,1.87567,0.00029,397.546,0.031,0.0116,0.0015,140.001,45.000,31244.31838,1.87587,397.601,34.680,45.068,45.000,0.00,0.10,-272.74,-272.80,-13,458,-947,24.7,19.2,-0.3,24.3,20.1,-0.0,5.73,1.99,2.4,28.6
2015-09-10 00:07:00,3.0,1.87585,0.00046,397.573,0.028,0.0092,0.0021,139.999,45.000,31240.06221,1.87601,397.618,34.655,45.068,45.000,0.00,0.10,-272.74,-272.80,-13,458,-947,24.7,19.8,0.1,24.3,20.5,0.3,5.73,2.07,2.4,28.6
2015-09-10 00:08:00,3.0,1.87598,0.00050,397.580,0.037,0.0076,0.0021,139.997,45.000,31239.12628,1.87610,397.615,34.638,45.068,45.001,0.00,0.10,-272.74,-272.81,-12,459,-947,24.7,19.8,0.0,24.3,20.6,0.3,5.73,1.89,2.4,28.6
2015-09-10 00:09:00,3.0,1.87590,0.00044,397.585,0.040,0.0069,0.0019,139.999,45.000,31241.06880,1.87605,397.618,34.626,45.068,45.001,0.00,0.10,-272.73,-272.80,-12,459,-947,24.7,19.9,0.2,24.3,20.7,0.4,5.73,1.76,2.4,28.5
2015-09-10 00:10:00,3.0,1.87584,0.00023,397.583,0.034,0.0061,0.0020,139.998,45.000,31241.77319,1.87593,397.612,34.627,45.068,45.001,0.00,0.10,-272.74,-272.79,-12,459,-947,24.7,20.1,0.3,24.3,20.9,0.6,5.73,1.89,2.4,28.5
2015-09-10 00:11:00,3.0,1.87606,0.00053,397.601,0.030,0.0050,0.0017,140.001,45.000,31243.38276,1.87619,397.625,34.628,45.068,45.000,0.00,0.10,-272.74,-272.80,-13,460,-948,24.7,19.7,-0.0,24.3,20.6,0.3,5.73,2.06,2.4,28.5
2015-09-10 00:12:00,3.0,1.87581,0.00039,397.593,0.035,0.0045,0.0023,140.000,45.000,31245.63759,1.87588,397.614,34.624,45.068,45.000,0.00,0.10,-272.74,-272.80,-13,460,-948,24.7,19.8,0.1,24.4,20.6,0.4,5.73,2.01,2.4,28.5
2015-09-10 00:13:00,3.0,1.87589,0.00044,397.595,0.035,0.0042,0.0016,140.001,45.000,31247.13658,1.87595,397.615,34.624,45.068,45.000,0.00,0.10,-272.74,-272.80,-13,460,-948,24.7,19.9,0.2,24.4,20.8,0.5,5.73,1.81,2.4,28.6
2015-09-10 00:14:00,3.0,1.87587,0.00037,397.605,0.030,0.0036,0.0015,140.000,45.000,31250.76230,1.87593,397.623,34.621,45.068,45.000,0.00,0.10,-272.74,-272.80,-12,461,-948,24.7,19.9,0.2,24.4,20.8,0.5,5.73,1.78,2.4,28.5
2015-09-10 00:15:00,3.0,1.87609,0.00028,397.597,0.029,0.0035,0.0017,139.999,45.000,31251.62491,1.87617,397.613,34.625,45.068,45.000,0.00,0.10,-272.74,-272.81,-12,461,-947,24.7,19.8,0.1,24.4,20.8,0.5,5.73,1.96,2.4,28.5
2015-09-10 00:16:00,3.0,1.87592,0.00027,397.601,0.024,0.0020,0.0019,140.001,45.000,31254.29583,1.87596,397.610,34.628,45.068,45.000,0.00,0.10,-272.73,-272.80,-12,462,-948,24.7,19.7,0.0,24.4,20.5,0.3,5.73,2.07,2.4,28.6
2015-09-10 00:17:00,3.0,1.87612,0.00035,397.629,0.025,0.0021,0.0019,139.999,45.000,31255.12415,1.87614,397.639,34.631,45.068,45.000,0.00,0.10,-272.73,-272.80,-12,462,-948,24.7,19.7,0.1,24.4,20.5,0.3,5.73,1.93,2.4,28.6
2015-09-10 00:18:00,3.0,1.87595,0.00042,397.628,0.034,0.0026,0.0021,140.002,45.000,31259.00343,1.87601,397.640,34.625,45.068,45.000,0.00,0.10,-272.74,-272.81,-13,463,-948,24.7,20.0,0.2,24.4,20.8,0.5,5.73,1.77,2.4,28.6
2015-09-10 00:19:00,3.0,1.87621,0.00035,397.644,0.024,0.0013,0.0019,140.002,45.000,31262.97351,1.87625,397.650,34.621,45.068,45.000,0.00,0.10,-272.74,-272.80,-13,463,-947,24.7,20.0,0.3,24.4,20.8,0.5,5.73,1.84,2.4,28.6
2015-09-10 00:20:00,0.0,1.98187,0.03758,391.957,2.366,0.6443,0.2641,140.028,45.000,31648.55709,1.99044,395.081,34.608,45.068,45.000,0.00,0.10,-272.74,-272.80,-14,519,-947,24.7,19.8,0.1,24.4,20.7,0.5,5.73,1.97,2.4,28.6
2015-09-10 00:21:00,0.0,1.99444,0.00052,390.592,0.096,0.7887,0.0081,140.001,45.000,31675.23745,2.01034,394.391,34.608,45.068,45.000,0.00,0.10,-272.74,-272.80,-14,520,-947,24.7,19.9,0.2,24.4,20.9,0.6,5.73,2.05,2.4,28.6
2015-09-10 00:22:00,0.0,1.99393,0.00097,390.699,0.038,0.7740,0.0095,140.001,45.000,31683.75967,2.00955,394.426,34.590,45.068,45.000,0.00,0.10,-272.74,-272.80,-14,520,-947,24.7,19.4,-0.2,24.4,20.4,0.3,5.73,2.02,2.4,28.5
2015-09-10 00:23:00,0.0,1.99273,0.00043,390.690,0.049,0.7627,0.0055,140.003,45.000,31692.26223,2.00805,394.363,34.615,45.068,45.000,0.00,0.10,-272.74,-272.80,-14,520,-947,24.7,19.1,-0.4,24.4,20.0,-0.0,5.73,1.95,2.4,28.5
2015-09-10 00:24:00,0.0,1.99267,0.00047,390.619,0.052,0.7708,0.0069,140.003,45.000,31697.74711,2.00813,394.330,34.624,45.068,45.000,0.00,0.10,-272.74,-272.80,-14,520,-947,24.8,19.3,-0.3,24.4,20.1,0.1,5.73,1.88,2.4,28.5
2015-09-10 00:25:00,0.0,1.99305,0.00040,390.610,0.036,0.7724,0.0033,139.998,45.000,31702.06068,2.00857,394.327,34.623,45.068,45.000,0.00,0.10,-272.74,-272.80,-14,521,-947,24.8,19.3,-0.2,24.4,20.2,0.1,5.73,1.84,2.4,28.5
2015-09-10 00:26:00,0.0,1.99354,0.00069,390.533,0.051,0.7830,0.0072,140.001,45.000,31706.72027,2.00932,394.301,34.624,45.068,45.000,0.00,0.10,-272.73,-272.80,-14,521,-946,24.8,19.5,-0.1,24.4,20.4,0.2,5.73,1.87,2.4,28.6
2015-09-10 00:27:00,0.0,1.99272,0.00048,390.560,0.060,0.7762,0.0062,140.002,45.000,31711.11804,2.00828,394.297,34.623,45.068,45.000,0.00,0.10,-272.74,-272.80,-14,521,-947,24.8,19.4,-0.1,24.4,20.3,0.2,5.73,1.94,2.4,28.6
2015-09-10 00:28:00,0.0,1.99320,0.00049,390.445,0.022,0.7845,0.0034,140.001,45.000,31712.81172,2.00901,394.223,34.625,45.068,45.000,0.00,0.10,-272.74,-272.81,-14,521,-947,24.8,19.6,-0.0,24.4,20.4,0.3,5.73,2.02,2.4,28.6
2015-09-10 00:29:00,0.0,1.99311,0.00032,390.477,0.058,0.7822,0.0062,139.999,45.000,31713.02057,2.00883,394.239,34.628,45.068,45.000,0.00,0.10,-272.74,-272.80,-14,521,-947,24.8,19.5,-0.0,24.4,20.4,0.2,5.73,2.04,2.4,28.6
2015-09-10 00:30:00,0.0,1.99285,0.00039,390.523,0.044,0.7789,0.0053,139.998,45.000,31713.42353,2.00848,394.274,34.626,45.068,45.000,0.00,0.10,-272.73,-272.80,-14,521,-947,24.8,19.4,-0.1,24.4,20.4,0.2,5.73,2.00,2.4,28.6
2015-09-10 00:31:00,0.0,1.99242,0.00083,390.520,0.050,0.7780,0.0092,140.000,45.000,31715.40799,2.00812,394.265,34.624,45.068,45.000,0.00,0.10,-272.74,-272.81,-14,521,-947,24.8,19.4,-0.2,24.4,20.3,0.2,5.73,1.92,2.4,28.6
2015-09-10 00:32:00,0.0,1.99238,0.00048,390.598,0.029,0.7679,0.0031,140.000,45.000,31717.79313,2.00778,394.292,34.625,45.068,45.000,0.00,0.10,-272.74,-272.80,-14,521,-947,24.8,19.1,-0.3,24.4,20.0,0.0,5.73,1.85,2.4,28.6
2015-09-10 00:33:00,0.0,1.99249,0.00052,390.554,0.044,0.7659,0.0037,140.001,45.000,31718.42288,2.00786,394.241,34.628,45.068,45.000,0.00,0.10,-272.74,-272.80,-14,521,-947,24.8,19.1,-0.4,24.4,20.0,-0.0,5.73,1.84,2.4,28.6
2015-09-10 00:34:00,0.0,1.99272,0.00053,390.485,0.026,0.7692,0.0030,139.998,45.000,31719.80222,2.00816,394.185,34.626,45.068,45.000,0.00,0.10,-272.74,-272.80,-14,521,-947,24.8,19.2,-0.3,24.4,20.0,-0.0,5.73,1.89,2.4,28.6
2015-09-10 00:35:00,0.0,1.99271,0.00044,390.413,0.045,0.7811,0.0038,140.001,45.000,31719.85031,2.00839,394.173,34.647,45.068,45.000,0.00,0.10,-272.75,-272.80,-14,521,-947,24.8,19.5,-0.1,24.4,20.2,0.1,5.73,1.99,2.4,28.5
2015-09-10 00:36:00,0.0,1.99257,0.00048,390.440,0.040,0.7782,0.0054,140.003,45.000,31723.43847,2.00823,394.184,34.657,45.068,45.000,0.00,0.10,-272.74,-272.79,-14,521,-946,24.8,19.4,-0.2,24.4,20.3,0.2,5.73,2.04,2.4,28.6
2015-09-10 00:37:00,0.0,1.99203,0.00055,390.430,0.056,0.7793,0.0066,140.003,45.000,31726.31843,2.00768,394.180,34.634,45.068,45.000,0.00,0.10,-272.74,-272.80,-14,521,-946,24.8,19.4,-0.2,24.4,20.3,0.2,5.73,2.03,2.4,28.6
2015-09-10 00:38:00,0.0,1.99333,0.00054,390.403,0.049,0.7839,0.0059,140.000,45.000,31724.99552,2.00905,394.176,34.626,45.068,45.000,0.00,0.10,-272.74,-272.80,-14,521,-946,24.8,19.6,0.0,24.4,20.3,0.2,5.73,1.97,2.4,28.5
2015-09-10 00:39:00,0.0,1.99267,0.00084,390.351,0.055,0.7884,0.0044,140.000,45.000,31728.04714,2.00857,394.143,34.625,45.068,45.000,0.00,0.10,-272.74,-272.80,-14,521,-946,24.8,19.6,0.0,24.4,20.5,0.3,5.73,1.89,2.4,28.6
2015-09-10 00:40:00,0.0,1.99207,0.00055,390.374,0.073,0.7850,0.0089,140.001,45.000,31728.43618,2.00783,394.153,34.613,45.068,45.000,0.00,0.10,-272.73,-272.80,-14,521,-946,24.8,19.6,-0.0,24.4,20.4,0.2,5.73,1.84,2.4,28.6
2015-09-10 00:41:00,0.0,1.99261,0.00046,390.283,0.063,0.7998,0.0061,140.001,45.000,31726.20043,2.00870,394.132,34.566,45.068,45.000,0.00,0.10,-272.74,-272.81,-14,521,-946,24.8,19.9,0.2,24.4,20.7,0.5,5.73,1.86,2.4,28.5
2015-09-10 00:42:00,0.0,1.99197,0.00064,390.529,0.077,0.7809,0.0072,140.001,45.000,31725.96792,2.00769,394.288,34.510,45.068,45.000,0.00,0.10,-272.74,-272.81,-14,521,-946,24.8,19.5,-0.1,24.4,20.5,0.3,5.73,1.92,2.3,28.6
2015-09-10 00:43:00,0.0,1.99270,0.00047,390.509,0.047,0.7876,0.0055,139.999,44.999,31723.44918,2.00846,394.300,34.441,45.067,44.999,0.00,0.10,-272.73,-272.80,-14,521,-946,24.7,19.7,0.0,24.4,20.4,0.3,5.73,1.98,2.3,28.5
2015-09-10 00:44:00,0.0,1.99261,0.00060,390.509,0.104,0.7894,0.0080,140.003,44.999,31721.30707,2.00853,394.310,34.369,45.067,44.999,0.00,0.10,-272.74,-272.80,-14,521,-946,24.7,19.7,-0.0,24.3,20.6,0.3,5.73,2.02,2.2,28.5
2015-09-10 00:45:00,0.0,1.99227,0.00039,390.437,0.039,0.7910,0.0041,140.000,44.999,31717.43344,2.00817,394.247,34.291,45.067,44.999,0.00,0.10,-272.75,-272.81,-14,521,-946,24.6,19.8,0.0,24.3,20.6,0.3,5.73,2.04,2.2,28.5
2015-09-10 00:46:00,0.0,1.99186,0.00049,390.436,0.038,0.7886,0.0052,139.999,44.999,31716.25310,2.00769,394.233,34.236,45.067,44.999,0.00,0.10,-272.74,-272.80,-14,521,-946,24.6,19.8,-0.0,24.3,20.6,0.3,5.73,1.99,2.2,28.5
2015-09-10 00:47:00,0.0,1.99159,0.00035,390.394,0.025,0.7912,0.0032,140.001,44.999,31716.55951,2.00751,394.202,34.188,45.067,45.000,0.00,0.10,-272.74,-272.80,-14,521,-946,24.6,19.8,0.0,24.3,20.7,0.3,5.73,1.89,2.1,28.5
2015-09-10 00:48:00,0.0,1.99168,0.00043,390.320,0.030,0.7927,0.0039,139.999,44.999,31714.38130,2.00759,394.136,34.153,45.068,45.000,0.00,0.10,-272.74,-272.81,-14,521,-946,24.5,19.9,0.0,24.2,20.7,0.3,5.73,1.82,2.1,28.4
2015-09-10 00:49:00,0.0,1.99116,0.00046,390.341,0.042,0.7897,0.0041,140.002,44.999,31713.95153,2.00705,394.142,34.125,45.068,45.000,0.00,0.10,-272.74,-272.80,-13,521,-946,24.5,19.9,-0.0,24.2,20.7,0.3,5.73,1.87,2.1,28.4
2015-09-10 00:50:00,0.0,1.99168,0.00052,390.317,0.029,0.7861,0.0044,140.000,44.999,31710.02928,2.00749,394.100,34.104,45.068,45.000,0.00,0.10,-272.74,-272.79,-13,521,-945,24.4,19.9,-0.1,24.1,20.7,0.2,5.73,1.99,2.0,28.3
2015-09-10 00:51:00,0.0,1.99110,0.00073,390.373,0.029,0.7723,0.0070,140.001,44.999,31707.95546,2.00663,394.090,34.059,45.068,45.000,0.00,0.10,-272.75,-272.80,-13,520,-945,24.3,19.5,-0.4,24.1,20.5,0.1,5.73,2.06,2.0,28.2
2015-09-10 00:52:00,0.0,1.99134,0.00061,390.354,0.029,0.7757,0.0066,139.999,45.000,31704.96956,2.00686,394.085,34.010,45.068,45.000,0.00,0.10,-272.75,-272.80,-13,520,-945,24.3,19.8,-0.3,24.0,20.5,0.0,5.73,2.02,1.9,28.2
2015-09-10 00:53:00,0.0,1.99148,0.00055,390.293,0.034,0.7866,0.0030,140.001,44.999,31704.47178,2.00728,394.077,33.965,45.067,45.000,0.00,0.10,-272.73,-272.80,-13,520,-945,24.2,20.1,-0.1,24.0,20.9,0.2,5.73,1.90,1.9,28.1
2015-09-10 00:54:00,0.0,1.99131,0.00057,390.320,0.060,0.7848,0.0061,140.001,44.999,31704.46007,2.00714,394.097,33.929,45.068,45.000,0.00,0.10,-272.74,-272.80,-13,520,-945,24.1,20.2,-0.1,23.9,21.0,0.2,5.73,1.82,1.8,28.1
2015-09-10 00:55:00,0.0,1.99206,0.00125,390.435,0.179,0.7876,0.0041,139.997,44.999,31700.03801,2.00786,394.227,33.874,45.068,45.000,0.00,0.10,-272.74,-272.81,-13,520,-945,24.0,20.4,-0.1,23.9,21.0,0.2,5.73,1.86,1.8,28.0
2015-09-10 00:56:00,0.0,1.99322,0.00103,390.395,0.122,0.7950,0.0044,140.001,44.999,31698.02066,2.00915,394.221,33.827,45.068,45.000,0.00,0.10,-272.74,-272.80,-13,520,-945,24.0,20.7,0.1,23.8,21.3,0.4,5.73,2.00,1.7,28.0
2015-09-10 00:57:00,0.0,1.99431,0.00080,390.652,0.169,0.7886,0.0021,140.002,44.999,31696.35508,2.01010,394.443,33.811,45.068,45.000,0.00,0.10,-272.74,-272.79,-13,520,-945,23.9,20.6,-0.1,23.7,21.3,0.3,5.73,2.07,1.7,28.0
2015-09-10 00:58:00,0.0,1.99505,0.00088,390.734,0.247,0.7952,0.0052,139.998,44.999,31692.67413,2.01111,394.573,33.777,45.068,45.000,0.00,0.10,-272.75,-272.81,-13,519,-945,23.8,20.9,0.1,23.7,21.4,0.3,5.73,2.01,1.6,27.9
2015-09-10 00:59:00,0.0,1.99226,0.00082,390.161,0.091,0.8098,0.0045,140.002,44.999,31693.28589,2.00860,394.063,33.751,45.068,45.000,0.00,0.10,-272.75,-272.81,-12,519,-945,23.7,21.4,0.3,23.6,21.8,0.5,5.73,1.88,1.6,27.8
2015-09-10 01:00:00,0.0,1.99098,0.00058,390.156,0.030,0.8012,0.0050,139.997,45.000,31692.96580,2.00715,394.014,33.750,45.068,45.000,0.00,0.10,-272.74,-272.80,-12,519,-945,23.7,21.1,0.1,23.6,21.8,0.5,5.73,1.81,1.6,27.9
2015-09-10 01:01:00,0.0,1.99055,0.00044,390.210,0.050,0.7907,0.0036,139.998,45.000,31693.12721,2.00643,394.013,33.753,45.068,45.000,0.00,0.10,-272.74,-272.79,-12,519,-945,23.6,21.0,-0.0,23.5,21.6,0.3,5.73,1.93,1.5,27.8
2015-09-10 01:02:00,0.0,1.99087,0.00040,390.312,0.056,0.7865,0.0055,140.001,45.000,31693.22949,2.00666,394.097,33.766,45.068,45.000,0.00,0.10,-272.75,-272.81,-13,519,-945,23.5,21.0,-0.1,23.5,21.5,0.2,5.73,2.10,1.5,27.7
2015-09-10 01:03:00,0.0,1.99104,0.00031,390.254,0.038,0.7906,0.0042,140.000,45.000,31693.96387,2.00691,394.058,33.794,45.068,45.001,0.00,0.10,-272.74,-272.80,-13,519,-945,23.3,21.2,-0.1,23.3,21.7,0.2,5.73,2.03,1.4,27.7
2015-09-10 01:04:00,0.0,1.99123,0.00035,390.243,0.041,0.7817,0.0049,140.002,45.000,31696.32517,2.00695,394.005,33.764,45.068,45.000,0.00,0.10,-272.74,-272.80,-13,519,-945,23.3,21.0,-0.3,23.3,21.6,0.1,5.73,1.87,1.4,27.6
2015-09-10 01:05:00,0.0,1.99062,0.00050,390.270,0.048,0.7698,0.0088,139.999,45.000,31692.67315,2.00612,393.974,33.747,45.068,45.000,0.00,0.10,-272.74,-272.80,-12,519,-945,23.2,20.8,-0.5,23.3,21.4,0.0,5.73,1.83,1.4,27.5
2015-09-10 01:06:00,0.0,1.99050,0.00043,390.278,0.039,0.7613,0.0039,139.997,45.000,31690.13010,2.00572,393.938,33.689,45.068,45.000,0.00,0.10,-272.74,-272.80,-12,518,-945,23.2,20.8,-0.5,23.2,21.2,-0.2,5.73,1.92,1.3,27.5
2015-09-10 01:07:00,0.0,1.99054,0.00042,390.272,0.060,0.7632,0.0064,140.000,44.999,31687.82902,2.00587,393.940,33.647,45.067,44.999,0.00,0.10,-272.74,-272.80,-12,518,-945,23.1,20.9,-0.5,23.1,21.3,-0.2,5.73,2.07,1.2,27.5
2015-09-10 01:08:00,0.0,1.99096,0.00046,390.266,0.038,0.7663,0.0030,140.001,44.999,31686.82891,2.00632,393.951,33.627,45.068,45.000,0.00,0.10,-272.74,-272.81,-12,518,-945,22.9,21.1,-0.5,23.0,21.5,-0.2,5.73,2.07,1.2,27.4
2015-09-10 01:09:00,0.0,1.99057,0.00045,390.149,0.076,0.7746,0.0074,140.002,45.000,31689.44544,2.00613,393.873,33.639,45.068,45.000,0.00,0.10,-272.74,-272.81,-12,517,-945,22.8,21.5,-0.3,23.0,21.7,-0.0,5.73,1.92,1.1,27.4
2015-09-10 01:10:00,0.0,1.99041,0.00040,390.175,0.067,0.7733,0.0054,140.000,45.000,31689.45054,2.00594,393.892,33.635,45.069,45.001,0.00,0.10,-272.73,-272.80,-12,517,-945,22.7,21.6,-0.3,22.9,22.0,0.0,5.73,1.81,1.1,27.3
2015-09-10 01:11:00,0.0,1.99091,0.00053,390.109,0.083,0.7806,0.0066,140.001,45.000,31687.61007,2.00654,393.863,33.628,45.069,45.001,0.00,0.10,-272.74,-272.80,-12,517,-945,22.6,22.0,-0.2,22.8,22.1,0.0,5.73,1.93,1.0,27.3
2015-09-10 01:12:00,0.0,1.99108,0.00034,390.114,0.048,0.7840,0.0062,139.999,45.001,31686.61704,2.00686,393.886,33.620,45.069,45.001,0.00,0.10,-272.75,-272.81,-12,517,-945,22.5,22.2,-0.2,22.7,22.4,0.1,5.73,2.07,1.0,27.2
2015-09-10 01:13:00,0.0,1.99080,0.00066,390.028,0.074,0.7864,0.0078,140.001,45.000,31687.29182,2.00661,393.808,33.575,45.069,45.001,0.00,0.10,-272.74,-272.81,-12,517,-945,22.4,22.4,-0.1,22.6,22.6,0.2,5.73,2.07,0.9,27.2
2015-09-10 01:14:00,0.0,1.99023,0.00022,390.191,0.050,0.7730,0.0038,140.001,45.000,31683.59558,2.00573,393.908,33.561,45.069,45.001,0.00,0.10,-272.74,-272.80,-11,516,-945,22.3,22.1,-0.4,22.5,22.4,-0.0,5.73,1.97,0.9,27.2
2015-09-10 01:15:00,0.0,1.99061,0.00041,390.137,0.076,0.7806,0.0081,140.000,45.000,31682.31317,2.00626,393.891,33.548,45.069,45.001,0.00,0.10,-272.74,-272.81,-11,516,-945,22.2,22.4,-0.2,22.5,22.5,0.0,5.73,1.83,0.8,27.1
2015-09-10 01:16:00,0.0,1.99093,0.00043,390.118,0.063,0.7874,0.0073,139.999,45.000,31682.66162,2.00675,393.904,33.562,45.069,45.001,0.00,0.10,-272.74,-272.80,-11,516,-945,22.2,22.7,-0.1,22.4,22.9,0.2,5.73,1.87,0.8,27.1
2015-09-10 01:17:00,0.0,1.99091,0.00042,390.114,0.057,0.7855,0.0071,139.997,45.000,31682.17891,2.00670,393.893,33.598,45.069,45.001,0.00,0.10,-272.75,-272.80,-12,515,-945,22.2,22.8,-0.1,22.4,22.9,0.2,5.73,2.06,0.8,27.1
2015-09-10 01:18:00,0.0,1.99070,0.00035,390.128,0.044,0.7838,0.0040,140.000,45.000,31685.63779,2.00644,393.898,33.650,45.069,45.001,0.00,0.10,-272.75,-272.80,-12,516,-945,22.1,22.8,-0.1,22.3,23.0,0.2,5.73,2.10,0.7,27.1
2015-09-10 01:19:00,0.0,1.99088,0.00040,390.069,0.066,0.7920,0.0071,139.998,45.000,31687.31841,2.00680,393.880,33.715,45.069,45.001,0.00,0.10,-272.74,-272.81,-12,515,-945,22.1,23.1,0.0,22.3,23.1,0.3,5.73,1.94,0.7,27.1
2015-09-10 01:20:00,0.0,1.99055,0.00040,390.003,0.059,0.7990,0.0051,140.000,45.000,31689.31615,2.00659,393.845,33.746,45.068,45.000,0.00,0.10,-272.74,-272.81,-11,515,-945,22.1,23.4,0.2,22.3,23.5,0.5,5.73,1.84,0.7,27.1
2015-09-10 01:21:00,0.0,1.99015,0.00046,390.102,0.098,0.7936,0.0093,140.001,45.000,31687.26834,2.00610,393.918,33.747,45.068,45.000,0.00,0.10,-272.74,-272.80,-11,515,-945,22.1,23.1,0.1,22.3,23.4,0.4,5.73,1.88,0.7,27.0
2015-09-10 01:22:00,0.0,1.99058,0.00047,390.091,0.054,0.7984,0.0069,140.002,45.000,31683.30613,2.00663,393.933,33.772,45.068,44.999,0.00,0.10,-272.75,-272.81,-10,513,-945,22.1,23.3,0.2,22.3,23.4,0.4,5.73,2.02,0.6,27.0
2015-09-10 01:23:00,0.0,1.99057,0.00048,390.191,0.043,0.7877,0.0043,140.002,45.000,31680.71082,2.00638,393.979,33.801,45.067,44.999,0.00,0.10,-272.74,-272.81,-10,516,-944,22.1,23.0,0.0,22.3,23.3,0.4,5.73,2.11,0.6,27.1
2015-09-10 01:24:00,0.0,1.99046,0.00033,390.169,0.039,0.7914,0.0059,139.997,45.000,31678.06831,2.00634,393.975,33.856,45.067,44.999,0.00,0.10,-272.74,-272.80,-11,515,-945,22.1,23.2,0.1,22.3,23.3,0.3,5.73,2.00,0.6,27.1
2015-09-10 01:25:00,0.0,1.99032,0.00069,390.123,0.101,0.7989,0.0125,140.001,45.000,31679.85265,2.00639,393.968,33.942,45.067,44.999,0.00,0.10,-272.74,-272.81,-11,515,-945,22.1,23.4,0.2,22.3,23.7,0.5,5.73,1.82,0.6,27.1
2015-09-10 01:26:00,0.0,1.99047,0.00043,390.136,0.068,0.7963,0.0082,140.000,45.001,31680.66775,2.00645,393.968,34.001,45.068,45.000,0.00,0.10,-272.75,-272.81,-12,515,-946,22.1,23.4,0.2,22.3,23.6,0.5,5.73,1.88,0.6,27.0
2015-09-10 01:27:00,0.0,1.98968,0.00068,390.193,0.053,0.7869,0.0091,140.001,45.001,31681.65558,2.00556,393.980,34.054,45.068,44.999,0.00,0.10,-272.75,-272.80,-11,515,-945,22.1,23.1,0.0,22.2,23.5,0.4,5.73,2.06,0.6,27.1
2015-09-10 01:28:00,0.0,1.98900,0.00037,390.310,0.037,0.7643,0.0048,140.000,45.001,31682.36038,2.00429,393.985,34.072,45.068,44.999,0.00,0.10,-272.75,-272.81,-11,515,-946,22.1,22.4,-0.4,22.3,22.9,0.0,5.73,2.10,0.6,27.0
2015-09-10 01:29:00,0.0,1.98934,0.00069,390.268,0.086,0.7666,0.0115,140.001,45.000,31683.02140,2.00471,393.953,34.119,45.068,44.999,0.00,0.10,-272.74,-272.81,-11,515,-946,22.1,22.5,-0.3,22.3,22.7,-0.1,5.73,1.94,0.6,27.1
2015-09-10 01:30:00,0.0,1.98820,0.00052,390.244,0.087,0.7724,0.0105,139.999,45.000,31681.06657,2.00373,393.959,34.122,45.067,44.999,0.00,0.10,-272.74,-272.80,-11,515,-946,22.1,22.6,-0.2,22.3,23.0,0.1,5.73,1.82,0.6,27.0
2015-09-10 01:31:00,0.0,1.98858,0.00051,390.316,0.055,0.7613,0.0061,140.000,45.000,31679.22179,2.00382,393.976,34.125,45.067,44.999,0.00,0.10,-272.75,-272.80,-11,515,-946,22.1,22.3,-0.4,22.3,22.7,-0.1,5.73,1.90,0.6,27.0
2015-09-10 01:32:00,0.0,1.98872,0.00040,390.277,0.036,0.7616,0.0029,140.001,45.000,31676.23034,2.00397,393.939,34.138,45.067,44.999,0.00,0.10,-272.75,-272.80,-12,515,-946,22.2,22.3,-0.4,22.2,22.6,-0.1,5.73,2.06,0.6,27.0
2015-09-10 01:33:00,0.0,1.98869,0.00044,390.277,0.033,0.7595,0.0050,140.001,45.000,31676.54366,2.00392,393.927,34.155,45.067,44.999,0.00,0.10,-272.74,-272.81,-11,515,-945,22.2,22.2,-0.4,22.3,22.6,-0.1,5.73,2.09,0.6,27.0
2015-09-10 01:34:00,0.0,1.98875,0.00048,390.284,0.040,0.7576,0.0029,139.998,45.000,31671.50726,2.00391,393.925,34.174,45.068,45.000,0.00,0.10,-272.74,-272.81,-11,515,-945,22.2,22.2,-0.4,22.2,22.6,-0.1,5.73,1.95,0.6,27.0
2015-09-10 01:35:00,0.0,1.98883,0.00056,390.275,0.057,0.7598,0.0081,139.997,45.000,31669.75308,2.00409,393.928,34.183,45.068,45.000,0.00,0.10,-272.74,-272.81,-11,515,-945,22.2,22.2,-0.4,22.3,22.6,-0.1,5.73,1.81,0.6,27.1
2015-09-10 01:36:00,0.0,1.98848,0.00039,390.308,0.036,0.7506,0.0038,139.999,45.000,31668.99603,2.00352,393.915,34.196,45.068,45.000,0.00,0.10,-272.74,-272.81,-10,515,-945,22.2,22.0,-0.5,22.3,22.3,-0.3,5.73,1.90,0.6,27.1
2015-09-10 01:37:00,0.0,1.98878,0.00039,390.244,0.045,0.7630,0.0048,140.001,45.000,31670.52199,2.00408,393.911,34.239,45.068,45.000,0.00,0.10,-272.74,-272.80,-11,515,-945,22.2,22.3,-0.4,22.2,22.6,-0.1,5.73,2.11,0.6,27.1
2015-09-10 01:38:00,0.0,1.98849,0.00040,390.229,0.053,0.7682,0.0051,140.001,45.000,31671.18200,2.00389,393.923,34.261,45.068,45.000,0.00,0.10,-272.74,-272.81,-11,515,-945,22.2,22.5,-0.3,22.3,22.8,0.0,5.73,2.05,0.6,27.1
2015-09-10 01:39:00,0.0,1.98877,0.00042,390.264,0.075,0.7671,0.0069,140.003,45.001,31670.98205,2.00413,393.952,34.311,45.068,45.000,0.00,0.10,-272.75,-272.81,-12,515,-946,22.2,22.5,-0.2,22.3,22.8,0.0,5.73,1.83,0.6,27.1
2015-09-10 01:40:00,0.0,1.98931,0.00047,390.235,0.038,0.7729,0.0031,140.002,45.001,31673.51739,2.00479,393.952,34.355,45.068,45.000,0.00,0.10,-272.74,-272.80,-11,515,-945,22.2,22.6,-0.2,22.3,22.9,0.1,5.73,1.86,0.6,27.1
2015-09-10 01:41:00,0.0,1.98937,0.00053,390.182,0.061,0.7812,0.0055,140.002,45.000,31673.46275,2.00505,393.938,34.375,45.068,45.000,0.00,0.10,-272.74,-272.80,-11,515,-946,22.2,22.8,-0.0,22.3,23.1,0.2,5.73,2.05,0.6,27.1
2015-09-10 01:42:00,0.0,1.98931,0.00041,390.171,0.035,0.7846,0.0049,139.998,45.000,31671.62661,2.00502,393.947,34.384,45.068,45.000,0.00,0.10,-272.75,-272.81,-11,515,-945,22.3,22.9,0.1,22.3,23.3,0.3,5.73,2.10,0.6,27.1
2015-09-10 01:43:00,0.0,1.98904,0.00048,390.088,0.036,0.7885,0.0040,139.998,45.000,31672.14442,2.00491,393.881,34.376,45.068,45.000,0.00,0.10,-272.74,-272.81,-11,515,-945,22.3,22.9,0.1,22.3,23.4,0.4,5.73,1.94,0.6,27.1
2015-09-10 01:44:00,0.0,1.98829,0.00040,390.120,0.041,0.7838,0.0045,140.001,45.000,31673.22587,2.00401,393.889,34.375,45.068,44.999,0.00,0.10,-272.73,-272.80,-11,515,-945,22.3,22.7,0.0,22.3,23.3,0.3,5.73,1.81,0.6,27.1
2015-09-10 01:45:00,0.0,1.98819,0.00035,390.203,0.035,0.7722,0.0030,140.000,45.000,31670.88089,2.00367,393.917,34.376,45.068,45.000,0.00,0.10,-272.75,-272.81,-12,515,-945,22.3,22.4,-0.2,22.3,22.9,0.1,5.73,1.89,0.6,27.1
2015-09-10 01:46:00,0.0,1.98763,0.00051,390.082,0.054,0.7802,0.0045,140.001,45.000,31671.91156,2.00331,393.834,34.394,45.067,45.000,0.00,0.10,-272.75,-272.81,-11,515,-945,22.4,22.6,-0.0,22.3,23.1,0.2,5.73,2.06,0.6,27.2